Regional Weather Roundup
Issued by NWS

Home | Current Version | Previous Version | Text Only | Print | Product List | Glossary Off
Versions: 1 2 3 4 5 6 7 8 9 10 11 12 13 14 15 16 17 18 19 20 21 22 23 24 25 26 27 28 29 30 31 32 33 34 35 36 37 38 39 40 41 42 43 44 45 46 47 48 49 50

000
ASUS43 KLMK 260510
RWRKY
KENTUCKY REGIONAL WEATHER ROUNDUP
NATIONAL WEATHER SERVICE LOUISVILLE KY
100 AM EDT WED JUL 26 2017

NOTE "FAIR" INDICATES FEW OR NO CLOUDS BELOW 12,000 FEET
WITH NO SIGNIFICANT WEATHER AND/OR OBSTRUCTIONS TO VISIBILITY.

KYZ001>023-026-027-061>063-070>075-260600-
WESTERN AND SOUTH CENTRAL KENTUCKY

CITY           SKY/WX    TMP DP  RH WIND       PRES   REMARKS
PADUCAH        CLEAR     76  73  91 SE3       30.08S
HENDERSON      CLEAR     76  71  85 E6        30.11S
OWENSBORO      CLEAR     77  70  79 E6        30.11S
HOPKINSVILLE   CLEAR     76  73  90 CALM      30.10S
BOWLING GREEN  PTCLDY    77  70  79 E5        30.12S
GLASGOW        PTCLDY    74  66  76 NE6       30.13F
$$

KYZ024-025-028>034-038-045-046-053-260600-
NORTH CENTRAL KENTUCKY

CITY           SKY/WX    TMP DP  RH WIND       PRES   REMARKS
LOUISVILLE/SDF CLEAR     75  62  64 E6        30.15S
LOUISVILLE/LOU CLEAR     74  63  68 E8        30.15S
FORT KNOX      CLEAR     73  64  75 E7        30.14S
$$

KYZ035>037-039>044-047>052-055>060-089>105-260600-
NORTHEAST KENTUCKY

CITY           SKY/WX    TMP DP  RH WIND       PRES   REMARKS
LEXINGTON      CLEAR     70  60  70 E10       30.18R
COVINGTON      CLEAR     67  62  84 SE10      30.18F
FRANKFORT      CLEAR     70  60  70 NE6       30.17R
$$

KYZ054-064>069-076>088-106>120-260600-
SOUTHEAST KENTUCKY

CITY           SKY/WX    TMP DP  RH WIND       PRES   REMARKS
JACKSON        CLEAR     66  60  81 CALM      30.19S
LONDON         CLEAR     71  63  75 CALM      30.17S
SOMERSET       CLEAR     70  63  78 CALM      30.17R
MIDDLESBORO    CLEAR     68  67  98 CALM      30.17S
MONTICELLO     CLEAR     66  66 100 W7        30.18R
$$





USA.gov is the U.S. government's official web portal to all federal, state and local government web resources and services.